| time (UTC) | temp F | wind direction | speed knots | gust knots | rain 1hr in | rain 24hr in | rain mn in | humidity % | barometer mb |
| 20260906193319 | 80 | 53 | 4.3 | 7.8 | 0.00 | 0.06 | 0.06 | 73 | 1018.3 |
| 20260906192816 | 80 | 51 | 5.2 | 7.8 | 0.00 | 0.06 | 0.06 | 74 | 1018.4 |
| 20260906192315 | 79 | 72 | 5.2 | 7.8 | 0.00 | 0.06 | 0.06 | 78 | 1018.3 |
| 20260906191814 | 79 | 83 | 5.2 | 8.7 | 0.00 | 0.06 | 0.06 | 78 | 1018.5 |
| 20260906191309 | 78 | 51 | 5.2 | 8.7 | 0.00 | 0.06 | 0.06 | 80 | 1018.5 |
| 20260906190803 | 79 | 69 | 3.5 | 7.8 | 0.00 | 0.06 | 0.06 | 81 | 1018.5 |
| 20260906190257 | 78 | 50 | 3.5 | 7.0 | 0.00 | 0.06 | 0.06 | 82 | 1018.8 |
| 20260906185757 | 77 | 92 | 2.6 | 5.2 | 0.00 | 0.06 | 0.06 | 84 | 1018.8 |
| 20260906185256 | 76 | 86 | 3.5 | 5.2 | 0.00 | 0.06 | 0.06 | 82 | 1018.9 |
| 20260906184751 | 77 | 112 | 3.5 | 5.2 | 0.12 | 0.06 | 0.06 | 82 | 1018.9 |
| 20260906184246 | 77 | 145 | 0.9 | 3.5 | 0.12 | 0.06 | 0.06 | 81 | 1019.2 |
| 20260906183742 | 77 | 80 | 2.6 | 5.2 | 0.00 | 0.04 | 0.04 | 78 | 1019.1 |
| 20260906183238 | 78 | 107 | 1.7 | 3.5 | 0.00 | 0.04 | 0.04 | 79 | 1019.2 |
| 20260906182737 | 78 | 55 | 3.5 | 5.2 | 0.00 | 0.04 | 0.04 | 77 | 1019.2 |
| 20260906182233 | 77 | 156 | 0.9 | 3.5 | 0.00 | 0.04 | 0.04 | 82 | 1019.4 |
| 20260906181728 | 77 | 10 | 5.2 | 7.0 | 0.00 | 0.04 | 0.04 | 82 | 1019.3 |
| 20260906181225 | 76 | 320 | 2.6 | 7.8 | 0.00 | 0.04 | 0.04 | 85 | 1019.6 |
| 20260906180725 | 76 | 19 | 6.1 | 7.8 | 0.00 | 0.04 | 0.04 | 84 | 1019.8 |
| 20260906180220 | 76 | 57 | 5.2 | 13.9 | 0.00 | 0.04 | 0.04 | 86 | 1019.6 |
| 20260906175718 | 75 | 46 | 5.2 | 7.8 | 0.00 | 0.04 | 0.04 | 86 | 1019.3 |
| 20260906175214 | 75 | 32 | 5.2 | 9.6 | 0.00 | 0.04 | 0.04 | 84 | 1019.5 |
| 20260906174712 | 76 | 352 | 5.2 | 13.0 | 0.00 | 0.04 | 0.04 | 85 | 1019.6 |
| 20260906174206 | 76 | 352 | 6.1 | 8.7 | 0.00 | 0.04 | 0.04 | 83 | 1019.3 |
| 20260906173702 | 76 | 13 | 7.0 | 8.7 | 0.00 | 0.04 | 0.04 | 84 | 1019.7 |
| 20260906173157 | 77 | 76 | 5.2 | 7.8 | 0.00 | 0.04 | 0.04 | 86 | 1019.7 |
| 20260906172656 | 77 | 91 | 2.6 | 5.2 | 0.00 | 0.04 | 0.04 | 87 | 1019.8 |
| 20260906172152 | 76 | 20 | 2.6 | 5.2 | 0.00 | 0.04 | 0.04 | 88 | 1019.6 |
| 20260906171652 | 76 | 72 | 2.6 | 3.5 | 0.00 | 0.04 | 0.04 | 89 | 1019.6 |
| 20260906171147 | 76 | 72 | 1.7 | 2.6 | 0.00 | 0.04 | 0.04 | 89 | 1019.6 |
| 20260906170643 | 75 | 152 | 0.9 | 0.9 | 0.00 | 0.04 | 0.04 | 88 | 1019.6 |
| 20260906170143 | 75 | 154 | 0.0 | 0.0 | 0.05 | 0.04 | 0.04 | 87 | 1019.4 |
| 20260906165639 | 75 | 175 | 1.7 | 2.6 | 0.05 | 0.04 | 0.04 | 87 | 1019.4 |
| 20260906165134 | 75 | 200 | 3.5 | 3.5 | 0.00 | 0.03 | 0.03 | 87 | 1019.3 |
| 20260906164633 | 75 | 184 | 4.3 | 5.2 | 0.00 | 0.03 | 0.03 | 87 | 1019.1 |
| 20260906164129 | 75 | 166 | 0.9 | 1.7 | 0.00 | 0.03 | 0.03 | 89 | 1018.8 |
| 20260906163625 | 75 | 140 | 1.7 | 2.6 | 0.00 | 0.03 | 0.03 | 89 | 1019.1 |
| 20260906163120 | 75 | 157 | 0.9 | 0.9 | 0.00 | 0.03 | 0.03 | 89 | 1018.7 |
| 20260906162617 | 75 | 155 | 0.0 | 0.9 | 0.00 | 0.03 | 0.03 | 90 | 1018.5 |
| 20260906162112 | 75 | 157 | 0.9 | 0.9 | 0.00 | 0.03 | 0.03 | 90 | 1018.5 |
| 20260906161612 | 75 | 153 | 0.0 | 2.6 | 0.00 | 0.03 | 0.03 | 91 | 1018.3 |
| 20260906161111 | 75 | 5 | 2.6 | 3.5 | 0.00 | 0.03 | 0.03 | 91 | 1018.1 |
| 20260906160610 | 75 | 128 | 2.6 | 2.6 | 0.00 | 0.03 | 0.03 | 91 | 1018.6 |
| 20260906160109 | 75 | 126 | 0.9 | 2.6 | 0.00 | 0.03 | 0.03 | 92 | 1018.5 |
| 20260906155607 | 74 | 154 | 0.0 | 0.9 | 0.00 | 0.03 | 0.03 | 93 | 1018.7 |
| 20260906155103 | 74 | 155 | 0.0 | 0.9 | 0.00 | 0.03 | 0.03 | 93 | 1018.9 |
| 20260906154558 | 74 | 159 | 0.9 | 1.7 | 0.00 | 0.03 | 0.03 | 93 | 1018.3 |
| 20260906154057 | 74 | 117 | 2.6 | 7.8 | 0.00 | 0.03 | 0.03 | 94 | 1017.9 |
| 20260906153556 | 74 | 111 | 3.5 | 5.2 | 0.00 | 0.03 | 0.03 | 94 | 1018.0 |
| 20260906153051 | 73 | 123 | 1.7 | 5.2 | 0.00 | 0.03 | 0.03 | 94 | 1017.9 |
| 20260906152551 | 73 | 141 | 0.9 | 2.6 | 0.00 | 0.03 | 0.03 | 94 | 1018.3 |
| 20260906152050 | 73 | 125 | 1.7 | 2.6 | 0.00 | 0.03 | 0.03 | 94 | 1018.0 |
| 20260906151546 | 73 | 85 | 3.5 | 6.1 | 0.00 | 0.03 | 0.03 | 94 | 1017.8 |
| 20260906151041 | 73 | 47 | 2.6 | 3.5 | 0.00 | 0.03 | 0.03 | 94 | 1018.0 |
| 20260906150537 | 73 | 128 | 1.7 | 1.7 | 0.00 | 0.03 | 0.03 | 94 | 1018.6 |
| 20260906150032 | 73 | 155 | 0.0 | 0.0 | 0.00 | 0.03 | 0.03 | 94 | 1018.7 |
| 20260906145530 | 73 | 155 | 0.9 | 0.9 | 0.00 | 0.03 | 0.03 | 94 | 1018.6 |
| 20260906145026 | 73 | 156 | 0.0 | 0.9 | 0.00 | 0.03 | 0.03 | 93 | 1018.9 |
| 20260906144520 | 73 | 142 | 0.9 | 1.7 | 0.00 | 0.03 | 0.03 | 93 | 1018.8 |
| 20260906144015 | 73 | 152 | 0.0 | 0.9 | 0.00 | 0.03 | 0.03 | 93 | 1018.8 |
| 20260906143510 | 74 | 156 | 0.0 | 0.9 | 0.00 | 0.03 | 0.03 | 93 | 1019.1 |
| 20260906143008 | 73 | 170 | 1.7 | 2.6 | 0.00 | 0.03 | 0.03 | 94 | 1019.3 |
| 20260906142506 | 73 | 156 | 1.7 | 3.5 | 0.00 | 0.03 | 0.03 | 94 | 1019.4 |
| 20260906142002 | 73 | 165 | 0.9 | 2.6 | 0.00 | 0.03 | 0.03 | 94 | 1019.1 |
| 20260906141455 | 74 | 160 | 1.7 | 1.7 | 0.00 | 0.03 | 0.03 | 94 | 1019.0 |
| 20260906140951 | 74 | 159 | 0.0 | 0.9 | 0.00 | 0.03 | 0.03 | 94 | 1018.9 |
| 20260906140445 | 74 | 152 | 0.0 | 0.0 | 0.00 | 0.03 | 0.03 | 94 | 1019.0 |
| 20260906135943 | 74 | 152 | 0.0 | 0.9 | 0.07 | 0.03 | 0.03 | 94 | 1019.0 |
| 20260906135442 | 74 | 154 | 0.0 | 0.9 | 0.12 | 0.03 | 0.03 | 93 | 1018.9 |
| 20260906134937 | 74 | 149 | 0.0 | 0.0 | 0.05 | 0.02 | 0.02 | 93 | 1018.7 |
| 20260906134432 | 74 | 148 | 0.0 | 0.0 | 0.00 | 0.01 | 0.01 | 93 | 1018.9 |
| 20260906133927 | 74 | 144 | 0.0 | 0.0 | 0.00 | 0.01 | 0.01 | 93 | 1018.9 |
| 20260906133423 | 74 | 144 | 0.0 | 0.0 | 0.00 | 0.01 | 0.01 | 92 | 1018.8 |
| 20260906132919 | 74 | 151 | 0.0 | 0.0 | 0.07 | 0.01 | 0.01 | 92 | 1019.0 |
| 20260906132414 | 74 | 140 | 0.9 | 1.7 | 0.07 | 0.01 | 0.01 | 91 | 1018.9 |
| 20260906131909 | 74 | 156 | 0.0 | 0.0 | 0.00 | 0.00 | 0.00 | 90 | 1018.7 |
| 20260906131404 | 75 | 167 | 0.0 | 0.0 | 0.00 | 0.00 | 0.00 | 89 | 1018.5 |
| 20260906130900 | 75 | 151 | 0.0 | 0.0 | 0.00 | 0.00 | 0.00 | 89 | 1018.7 |
| 20260906130359 | 75 | 150 | 0.0 | 0.9 | 0.00 | 0.00 | 0.00 | 88 | 1018.7 |
| 20260906125859 | 75 | 157 | 0.0 | 1.7 | 0.00 | 0.00 | 0.00 | 87 | 1018.0 |
| 20260906125356 | 75 | 186 | 2.6 | 2.6 | 0.00 | 0.00 | 0.00 | 87 | 1018.4 |
| 20260906124851 | 76 | 200 | 1.7 | 2.6 | 0.00 | 0.00 | 0.00 | 87 | 1018.4 |
| 20260906124347 | 76 | 193 | 1.7 | 2.6 | 0.00 | 0.00 | 0.00 | 86 | 1018.3 |
| 20260906123846 | 76 | 161 | 0.0 | 3.5 | 0.00 | 0.00 | 0.00 | 85 | 1018.3 |
| 20260906123341 | 76 | 191 | 1.7 | 2.6 | 0.00 | 0.00 | 0.00 | 84 | 1018.1 |
| 20260906122841 | 76 | 161 | 2.6 | 5.2 | 0.00 | 0.00 | 0.00 | 84 | 1017.7 |
| 20260906122335 | 76 | 176 | 3.5 | 3.5 | 0.00 | 0.00 | 0.00 | 84 | 1017.2 |
| 20260906121832 | 76 | 163 | 1.7 | 3.5 | 0.00 | 0.00 | 0.00 | 84 | 1017.1 |
| 20260906121328 | 76 | 188 | 1.7 | 3.5 | 0.00 | 0.00 | 0.00 | 84 | 1016.8 |
| 20260906120824 | 76 | 157 | 1.7 | 2.6 | 0.00 | 0.00 | 0.00 | 85 | 1016.8 |
| 20260906120320 | 76 | 163 | 0.9 | 1.7 | 0.00 | 0.00 | 0.00 | 85 | 1016.8 |
| 20260906115816 | 76 | 165 | 1.7 | 2.6 | 0.00 | 0.00 | 0.00 | 84 | 1016.9 |
| 20260906115311 | 76 | 162 | 0.9 | 2.6 | 0.00 | 0.00 | 0.00 | 85 | 1016.9 |
| 20260906114810 | 76 | 159 | 1.7 | 2.6 | 0.00 | 0.00 | 0.00 | 85 | 1016.7 |
| 20260906114305 | 76 | 161 | 1.7 | 3.5 | 0.00 | 0.00 | 0.00 | 84 | 1016.8 |
| 20260906113800 | 76 | 177 | 3.5 | 3.5 | 0.00 | 0.00 | 0.00 | 85 | 1016.9 |
| 20260906113254 | 76 | 156 | 0.9 | 1.7 | 0.00 | 0.00 | 0.00 | 85 | 1016.9 |
| 20260906112754 | 76 | 165 | 1.7 | 2.6 | 0.00 | 0.00 | 0.00 | 85 | 1016.8 |
| 20260906112251 | 76 | 159 | 0.9 | 1.7 | 0.00 | 0.00 | 0.00 | 86 | 1016.8 |
| 20260906111744 | 76 | 164 | 1.7 | 2.6 | 0.00 | 0.00 | 0.00 | 86 | 1016.7 |
| 20260906111238 | 76 | 161 | 1.7 | 5.2 | 0.00 | 0.00 | 0.00 | 86 | 1016.9 |
| 20260906110734 | 76 | 157 | 1.7 | 3.5 | 0.00 | 0.00 | 0.00 | 86 | 1016.7 |
| 20260906110230 | 76 | 130 | 1.7 | 3.5 | 0.00 | 0.00 | 0.00 | 87 | 1016.8 |
| 20260906105728 | 76 | 156 | 0.9 | 2.6 | 0.00 | 0.00 | 0.00 | 87 | 1016.7 |
| 20260906105225 | 76 | 169 | 1.7 | 3.5 | 0.00 | 0.00 | 0.00 | 86 | 1016.5 |
| 20260906104725 | 76 | 187 | 2.6 | 3.5 | 0.00 | 0.00 | 0.00 | 86 | 1016.7 |
| 20260906104224 | 76 | 171 | 1.7 | 3.5 | 0.00 | 0.00 | 0.00 | 87 | 1016.7 |
| 20260906103721 | 76 | 172 | 1.7 | 2.6 | 0.00 | 0.00 | 0.00 | 87 | 1016.6 |
| 20260906103216 | 76 | 141 | 4.3 | 6.1 | 0.00 | 0.00 | 0.00 | 86 | 1016.6 |
| 20260906102712 | 77 | 161 | 2.6 | 3.5 | 0.00 | 0.00 | 0.00 | 86 | 1016.7 |
| 20260906102212 | 77 | 163 | 1.7 | 5.2 | 0.00 | 0.00 | 0.00 | 86 | 1016.7 |
| 20260906101711 | 77 | 187 | 2.6 | 5.2 | 0.00 | 0.00 | 0.00 | 86 | 1016.9 |
| 20260906101207 | 77 | 168 | 2.6 | 2.6 | 0.00 | 0.00 | 0.00 | 86 | 1017.0 |
| 20260906100702 | 77 | 160 | 1.7 | 3.5 | 0.00 | 0.00 | 0.00 | 86 | 1017.0 |
| 20260906100156 | 77 | 186 | 2.6 | 3.5 | 0.00 | 0.00 | 0.00 | 87 | 1016.8 |
| 20260906095651 | 76 | 160 | 0.9 | 2.6 | 0.00 | 0.00 | 0.00 | 87 | 1016.9 |
| 20260906095147 | 76 | 191 | 1.7 | 2.6 | 0.00 | 0.00 | 0.00 | 87 | 1016.6 |
| 20260906094646 | 77 | 154 | 0.9 | 1.7 | 0.00 | 0.00 | 0.00 | 87 | 1016.8 |
| 20260906094142 | 77 | 162 | 1.7 | 2.6 | 0.00 | 0.00 | 0.00 | 87 | 1016.7 |
| 20260906093638 | 77 | 160 | 0.0 | 2.6 | 0.00 | 0.00 | 0.00 | 87 | 1016.7 |
| 20260906093137 | 77 | 165 | 1.7 | 3.5 | 0.00 | 0.00 | 0.00 | 87 | 1016.7 |
| 20260906092632 | 77 | 173 | 0.9 | 2.6 | 0.00 | 0.00 | 0.00 | 88 | 1016.7 |
| 20260906092127 | 77 | 164 | 0.9 | 3.5 | 0.00 | 0.00 | 0.00 | 88 | 1016.7 |
| 20260906091623 | 76 | 158 | 0.9 | 1.7 | 0.00 | 0.00 | 0.00 | 88 | 1016.8 |
| 20260906091120 | 76 | 162 | 0.9 | 2.6 | 0.00 | 0.00 | 0.00 | 89 | 1016.6 |
| 20260906090615 | 76 | 160 | 0.9 | 1.7 | 0.00 | 0.00 | 0.00 | 89 | 1016.7 |
| 20260906090115 | 76 | 159 | 1.7 | 1.7 | 0.00 | 0.00 | 0.00 | 89 | 1016.8 |
| 20260906085614 | 76 | 155 | 0.9 | 1.7 | 0.00 | 0.00 | 0.00 | 89 | 1016.6 |
| 20260906085108 | 76 | 158 | 1.7 | 2.6 | 0.00 | 0.00 | 0.00 | 90 | 1016.6 |
| 20260906084603 | 76 | 155 | 0.9 | 2.6 | 0.00 | 0.00 | 0.00 | 91 | 1016.9 |
| 20260906084102 | 76 | 171 | 2.6 | 2.6 | 0.00 | 0.00 | 0.00 | 90 | 1017.0 |
| 20260906083558 | 76 | 160 | 0.9 | 2.6 | 0.00 | 0.00 | 0.00 | 90 | 1016.9 |
| 20260906083057 | 77 | 165 | 0.9 | 3.5 | 0.00 | 0.00 | 0.00 | 89 | 1017.1 |
| 20260906082553 | 77 | 148 | 2.6 | 2.6 | 0.00 | 0.00 | 0.00 | 88 | 1016.9 |
| 20260906082048 | 77 | 163 | 0.9 | 1.7 | 0.00 | 0.00 | 0.00 | 88 | 1017.1 |
| 20260906081544 | 77 | 165 | 0.9 | 1.7 | 0.00 | 0.00 | 0.00 | 88 | 1017.1 |
| 20260906081039 | 77 | 163 | 1.7 | 2.6 | 0.00 | 0.00 | 0.00 | 88 | 1017.1 |
| 20260906080536 | 77 | 182 | 1.7 | 2.6 | 0.00 | 0.00 | 0.00 | 87 | 1017.0 |
| 20260906080031 | 77 | 176 | 1.7 | 2.6 | 0.00 | 0.00 | 0.00 | 88 | 1017.1 |
| 20260906075526 | 77 | 165 | 1.7 | 2.6 | 0.00 | 0.00 | 0.00 | 87 | 1017.1 |
| 20260906075020 | 78 | 160 | 1.7 | 1.7 | 0.00 | 0.00 | 0.00 | 88 | 1017.0 |
| 20260906074515 | 78 | 165 | 2.6 | 3.5 | 0.00 | 0.00 | 0.00 | 87 | 1017.0 |
| 20260906074014 | 78 | 160 | 0.9 | 2.6 | 0.00 | 0.00 | 0.00 | 87 | 1016.7 |
| 20260906073509 | 78 | 151 | 2.6 | 2.6 | 0.00 | 0.00 | 0.00 | 87 | 1016.8 |
| 20260906073005 | 78 | 166 | 0.9 | 2.6 | 0.00 | 0.00 | 0.00 | 87 | 1016.8 |
| 20260906072500 | 78 | 156 | 1.7 | 6.1 | 0.00 | 0.00 | 0.00 | 87 | 1016.6 |
| 20260906071955 | 78 | 189 | 3.5 | 5.2 | 0.00 | 0.00 | 0.00 | 87 | 1016.7 |
| 20260906071452 | 78 | 178 | 2.6 | 3.5 | 0.00 | 0.00 | 0.00 | 88 | 1017.0 |
| 20260906070947 | 78 | 181 | 1.7 | 2.6 | 0.00 | 0.00 | 0.00 | 88 | 1016.8 |
| 20260906070442 | 78 | 159 | 0.9 | 3.5 | 0.00 | 0.00 | 0.00 | 88 | 1016.8 |
| 20260906065938 | 78 | 169 | 1.7 | 1.7 | 0.00 | 0.00 | 0.00 | 87 | 1016.8 |
| 20260906065432 | 78 | 165 | 1.7 | 1.7 | 0.00 | 0.00 | 0.00 | 87 | 1016.8 |
| 20260906064928 | 78 | 155 | 0.9 | 2.6 | 0.00 | 0.00 | 0.00 | 86 | 1016.7 |
| 20260906064424 | 78 | 147 | 0.9 | 2.6 | 0.00 | 0.00 | 0.00 | 86 | 1016.8 |
| 20260906063924 | 79 | 148 | 0.0 | 1.7 | 0.00 | 0.00 | 0.00 | 86 | 1016.7 |
| 20260906063419 | 79 | 168 | 1.7 | 5.2 | 0.00 | 0.00 | 0.00 | 86 | 1016.7 |
| 20260906062915 | 79 | 163 | 1.7 | 3.5 | 0.00 | 0.00 | 0.00 | 85 | 1016.8 |
| 20260906062414 | 79 | 196 | 2.6 | 6.1 | 0.00 | 0.00 | 0.00 | 85 | 1016.9 |
| 20260906061909 | 79 | 191 | 1.7 | 5.2 | 0.00 | 0.00 | 0.00 | 85 | 1017.0 |
| 20260906061406 | 79 | 179 | 2.6 | 5.2 | 0.00 | 0.00 | 0.00 | 85 | 1017.0 |
| 20260906060859 | 79 | 174 | 2.6 | 2.6 | 0.00 | 0.00 | 0.00 | 85 | 1017.0 |
| 20260906060357 | 79 | 148 | 3.5 | 5.2 | 0.00 | 0.00 | 0.00 | 85 | 1017.0 |
| 20260906055853 | 79 | 178 | 1.7 | 3.5 | 0.00 | 0.00 | 0.00 | 85 | 1017.0 |
| 20260906055349 | 79 | 172 | 3.5 | 5.2 | 0.00 | 0.00 | 0.00 | 84 | 1016.8 |
| 20260906054843 | 79 | 178 | 3.5 | 3.5 | 0.00 | 0.00 | 0.00 | 84 | 1016.9 |
| 20260906054338 | 79 | 171 | 4.3 | 5.2 | 0.00 | 0.00 | 0.00 | 84 | 1016.8 |
| 20260906053835 | 79 | 151 | 2.6 | 2.6 | 0.00 | 0.00 | 0.00 | 84 | 1017.0 |
| 20260906053330 | 79 | 161 | 1.7 | 3.5 | 0.00 | 0.00 | 0.00 | 84 | 1017.0 |
| 20260906052826 | 80 | 162 | 0.9 | 2.6 | 0.00 | 0.00 | 0.00 | 84 | 1017.1 |
| 20260906052322 | 80 | 159 | 0.9 | 1.7 | 0.00 | 0.00 | 0.00 | 83 | 1017.0 |
| 20260906051819 | 80 | 160 | 0.0 | 3.5 | 0.00 | 0.00 | 0.00 | 83 | 1017.0 |
| 20260906051318 | 80 | 144 | 3.5 | 5.2 | 0.00 | 0.00 | 0.00 | 83 | 1017.0 |
| 20260906050814 | 80 | 163 | 0.9 | 3.5 | 0.00 | 0.00 | 0.00 | 83 | 1017.0 |
| 20260906050309 | 80 | 163 | 1.7 | 1.7 | 0.00 | 0.00 | 0.00 | 82 | 1017.0 |
| 20260906045808 | 80 | 141 | 2.6 | 5.2 | 0.00 | 0.00 | 0.00 | 83 | 1017.2 |
| 20260906045305 | 80 | 149 | 1.7 | 5.2 | 0.00 | 0.00 | 0.00 | 82 | 1017.1 |
| 20260906044759 | 80 | 154 | 1.7 | 3.5 | 0.00 | 0.00 | 0.00 | 82 | 1017.2 |
| 20260906044253 | 80 | 169 | 1.7 | 5.2 | 0.00 | 0.00 | 0.00 | 82 | 1017.0 |
| 20260906043749 | 81 | 160 | 0.9 | 3.5 | 0.00 | 0.00 | 0.00 | 81 | 1017.1 |
| 20260906043245 | 81 | 142 | 1.7 | 3.5 | 0.00 | 0.00 | 0.00 | 81 | 1017.1 |
| 20260906042744 | 81 | 150 | 3.5 | 5.2 | 0.00 | 0.00 | 0.00 | 81 | 1017.0 |
| 20260906042243 | 81 | 183 | 1.7 | 3.5 | 0.00 | 0.00 | 0.00 | 81 | 1016.9 |
| 20260906041739 | 81 | 170 | 1.7 | 6.1 | 0.00 | 0.00 | 0.00 | 81 | 1017.1 |
| 20260906041234 | 81 | 194 | 2.6 | 5.2 | 0.00 | 0.00 | 0.00 | 81 | 1017.1 |
| 20260906040730 | 81 | 205 | 3.5 | 3.5 | 0.00 | 0.00 | 0.00 | 81 | 1017.0 |
| 20260906040225 | 81 | 148 | 0.9 | 3.5 | 0.00 | 0.00 | 0.00 | 81 | 1017.1 |
| 20260906035720 | 81 | 154 | 3.5 | 3.5 | 0.00 | 0.00 | 0.00 | 81 | 1017.3 |
| 20260906035216 | 81 | 143 | 0.0 | 0.9 | 0.00 | 0.00 | 0.00 | 80 | 1017.3 |
| 20260906034716 | 81 | 145 | 0.0 | 1.7 | 0.00 | 0.00 | 0.00 | 80 | 1017.1 |
| 20260906034211 | 81 | 149 | 0.9 | 1.7 | 0.00 | 0.00 | 0.00 | 79 | 1017.1 |
| 20260906033707 | 81 | 152 | 0.0 | 2.6 | 0.00 | 0.00 | 0.00 | 79 | 1017.0 |
| 20260906033206 | 81 | 160 | 2.6 | 2.6 | 0.00 | 0.00 | 0.00 | 80 | 1017.0 |
| 20260906032703 | 81 | 134 | 0.9 | 0.9 | 0.00 | 0.00 | 0.00 | 80 | 1017.2 |
| 20260906032158 | 81 | 146 | 0.9 | 1.7 | 0.00 | 0.00 | 0.00 | 79 | 1017.1 |
| 20260906031653 | 81 | 151 | 0.9 | 0.9 | 0.00 | 0.00 | 0.00 | 79 | 1017.1 |
| 20260906031148 | 81 | 149 | 0.0 | 1.7 | 0.00 | 0.00 | 0.00 | 78 | 1017.4 |
| 20260906030648 | 81 | 147 | 0.9 | 2.6 | 0.00 | 0.00 | 0.00 | 78 | 1017.1 |
| 20260906030143 | 81 | 141 | 0.0 | 2.6 | 0.00 | 0.00 | 0.00 | 77 | 1017.3 |
| 20260906025642 | 81 | 159 | 0.9 | 6.1 | 0.00 | 0.00 | 0.00 | 77 | 1017.2 |
| 20260906025141 | 81 | 159 | 0.0 | 0.9 | 0.00 | 0.00 | 0.00 | 77 | 1017.2 |
| 20260906024636 | 81 | 142 | 0.9 | 1.7 | 0.00 | 0.00 | 0.00 | 77 | 1017.2 |
| 20260906024130 | 81 | 160 | 0.9 | 1.7 | 0.00 | 0.00 | 0.00 | 77 | 1017.0 |
| 20260906023627 | 81 | 160 | 1.7 | 1.7 | 0.00 | 0.00 | 0.00 | 77 | 1016.9 |
| 20260906023126 | 81 | 149 | 0.0 | 2.6 | 0.00 | 0.00 | 0.00 | 77 | 1016.9 |
| 20260906022622 | 81 | 147 | 0.0 | 1.7 | 0.00 | 0.00 | 0.00 | 77 | 1017.0 |
| 20260906022117 | 81 | 141 | 0.0 | 2.6 | 0.00 | 0.00 | 0.00 | 77 | 1016.6 |
| 20260906021613 | 81 | 143 | 0.0 | 0.9 | 0.00 | 0.00 | 0.00 | 78 | 1016.6 |
| 20260906021111 | 81 | 144 | 0.0 | 0.9 | 0.00 | 0.00 | 0.00 | 78 | 1016.4 |
| 20260906020611 | 81 | 141 | 0.9 | 1.7 | 0.00 | 0.00 | 0.00 | 79 | 1016.1 |
| 20260906020106 | 82 | 145 | 0.0 | 0.9 | 0.00 | 0.00 | 0.00 | 79 | 1016.1 |
| 20260906015606 | 82 | 151 | 0.0 | 0.0 | 0.00 | 0.00 | 0.00 | 79 | 1016.1 |
| 20260906015105 | 82 | 155 | 0.9 | 0.9 | 0.00 | 0.00 | 0.00 | 79 | 1016.1 |
| 20260906014559 | 82 | 151 | 0.0 | 1.7 | 0.00 | 0.00 | 0.00 | 79 | 1015.8 |
| 20260906014056 | 82 | 160 | 1.7 | 2.6 | 0.00 | 0.00 | 0.00 | 79 | 1015.8 |
| 20260906013551 | 82 | 155 | 0.9 | 2.6 | 0.00 | 0.00 | 0.00 | 79 | 1015.8 |
| 20260906013046 | 82 | 149 | 0.0 | 0.9 | 0.00 | 0.00 | 0.00 | 79 | 1015.7 |
| 20260906012541 | 83 | 158 | 0.9 | 0.9 | 0.00 | 0.00 | 0.00 | 79 | 1015.8 |
| 20260906012040 | 83 | 148 | 0.0 | 0.9 | 0.00 | 0.00 | 0.00 | 78 | 1015.8 |
| 20260906011537 | 83 | 156 | 0.9 | 1.7 | 0.00 | 0.00 | 0.00 | 77 | 1015.8 |
| 20260906011036 | 84 | 128 | 0.0 | 1.7 | 0.00 | 0.00 | 0.00 | 77 | 1015.6 |
| 20260906010532 | 84 | 151 | 0.0 | 0.9 | 0.00 | 0.00 | 0.00 | 75 | 1015.4 |
| 20260906010028 | 85 | 147 | 0.9 | 0.9 | 0.00 | 0.00 | 0.00 | 74 | 1015.3 |
| 20260906005527 | 85 | 146 | 0.0 | 1.7 | 0.00 | 0.00 | 0.00 | 73 | 1015.4 |
| 20260906005026 | 86 | 154 | 0.9 | 0.9 | 0.00 | 0.00 | 0.00 | 72 | 1015.4 |
| 20260906004520 | 87 | 151 | 0.9 | 2.6 | 0.00 | 0.00 | 0.00 | 71 | 1015.5 |
| 20260906004015 | 87 | 157 | 0.9 | 2.6 | 0.00 | 0.00 | 0.00 | 70 | 1015.5 |
| 20260906003511 | 87 | 155 | 0.9 | 0.9 | 0.00 | 0.00 | 0.00 | 70 | 1015.4 |
| 20260906003007 | 87 | 153 | 1.7 | 1.7 | 0.00 | 0.00 | 0.00 | 69 | 1015.6 |
| 20260906002507 | 88 | 153 | 0.0 | 0.0 | 0.00 | 0.00 | 0.00 | 68 | 1015.2 |
| 20260906002001 | 88 | 153 | 0.0 | 2.6 | 0.00 | 0.00 | 0.00 | 66 | 1015.3 |
| 20260906001458 | 89 | 157 | 1.7 | 3.5 | 0.00 | 0.00 | 0.00 | 65 | 1015.4 |
| 20260906000952 | 89 | 156 | 0.9 | 6.1 | 0.00 | 0.00 | 0.00 | 64 | 1015.3 |
| 20260906000448 | 89 | 184 | 3.5 | 6.1 | 0.00 | 0.00 | 0.00 | 64 | 1015.1 |
| 20260905235948 | 89 | 172 | 2.6 | 5.2 | 0.00 | 0.00 | 0.00 | 64 | 1015.0 |
| 20260905235442 | 89 | 158 | 1.7 | 3.5 | 0.00 | 0.00 | 0.00 | 64 | 1015.1 |
| 20260905234937 | 89 | 193 | 7.0 | 8.7 | 0.00 | 0.00 | 0.00 | 63 | 1015.0 |
| 20260905234433 | 90 | 143 | 3.5 | 6.1 | 0.00 | 0.00 | 0.00 | 63 | 1015.0 |
| 20260905233932 | 90 | 151 | 2.6 | 6.1 | 0.00 | 0.00 | 0.00 | 63 | 1014.9 |
| 20260905233428 | 90 | 174 | 2.6 | 5.2 | 0.00 | 0.00 | 0.00 | 62 | 1014.8 |
| 20260905232926 | 90 | 190 | 2.6 | 6.1 | 0.00 | 0.00 | 0.00 | 62 | 1014.9 |
| 20260905232423 | 90 | 155 | 5.2 | 7.8 | 0.00 | 0.00 | 0.00 | 61 | 1014.9 |
| 20260905231918 | 90 | 171 | 2.6 | 7.0 | 0.00 | 0.00 | 0.00 | 61 | 1014.8 |
| 20260905231414 | 91 | 167 | 3.5 | 6.1 | 0.00 | 0.00 | 0.00 | 61 | 1014.9 |
| 20260905230910 | 91 | 164 | 1.7 | 6.1 | 0.00 | 0.00 | 0.00 | 61 | 1014.9 |
| 20260905230409 | 91 | 147 | 3.5 | 5.2 | 0.00 | 0.00 | 0.00 | 61 | 1014.8 |
| 20260905225907 | 91 | 154 | 1.7 | 5.2 | 0.00 | 0.00 | 0.00 | 61 | 1014.9 |
| 20260905225402 | 91 | 150 | 3.5 | 12.2 | 0.00 | 0.00 | 0.00 | 60 | 1014.8 |
| 20260905224857 | 91 | 200 | 5.2 | 7.8 | 0.00 | 0.00 | 0.00 | 59 | 1014.5 |
| 20260905224353 | 91 | 196 | 8.7 | 11.3 | 0.00 | 0.00 | 0.00 | 59 | 1014.8 |
| 20260905223848 | 91 | 228 | 6.1 | 7.8 | 0.00 | 0.00 | 0.00 | 59 | 1014.5 |
| 20260905223346 | 91 | 253 | 5.2 | 11.3 | 0.00 | 0.00 | 0.00 | 59 | 1014.6 |
| 20260905222845 | 91 | 184 | 5.2 | 11.3 | 0.00 | 0.00 | 0.00 | 58 | 1014.5 |
| 20260905222344 | 91 | 198 | 7.8 | 11.3 | 0.00 | 0.00 | 0.00 | 58 | 1014.5 |
| 20260905221841 | 91 | 175 | 4.3 | 8.7 | 0.00 | 0.00 | 0.00 | 58 | 1014.5 |
| 20260905221337 | 92 | 167 | 3.5 | 7.0 | 0.00 | 0.00 | 0.00 | 58 | 1014.3 |
| 20260905220832 | 92 | 196 | 5.2 | 9.6 | 0.00 | 0.00 | 0.00 | 57 | 1014.3 |
| 20260905220328 | 91 | 144 | 3.5 | 7.0 | 0.00 | 0.00 | 0.00 | 58 | 1014.2 |
| 20260905215828 | 91 | 159 | 4.3 | 9.6 | 0.00 | 0.00 | 0.00 | 57 | 1014.4 |
| 20260905215324 | 91 | 167 | 5.2 | 7.8 | 0.00 | 0.00 | 0.00 | 57 | 1014.5 |
| 20260905214820 | 91 | 159 | 4.3 | 8.7 | 0.00 | 0.00 | 0.00 | 57 | 1014.3 |
| 20260905214315 | 91 | 162 | 5.2 | 8.7 | 0.00 | 0.00 | 0.00 | 58 | 1014.1 |
| 20260905213810 | 91 | 211 | 7.0 | 11.3 | 0.00 | 0.00 | 0.00 | 57 | 1014.1 |
| 20260905213307 | 90 | 215 | 9.6 | 11.3 | 0.00 | 0.00 | 0.00 | 56 | 1014.4 |
| 20260905212807 | 91 | 135 | 8.7 | 12.2 | 0.00 | 0.00 | 0.00 | 56 | 1014.4 |
| 20260905212306 | 90 | 190 | 4.3 | 7.8 | 0.00 | 0.00 | 0.00 | 59 | 1014.6 |
| 20260905211801 | 90 | 201 | 7.0 | 11.3 | 0.00 | 0.00 | 0.00 | 57 | 1014.5 |
| 20260905211256 | 90 | 174 | 5.2 | 12.2 | 0.00 | 0.00 | 0.00 | 58 | 1014.6 |
| 20260905210753 | 89 | 148 | 7.8 | 15.6 | 0.00 | 0.00 | 0.00 | 57 | 1014.6 |
| 20260905210252 | 89 | 170 | 7.0 | 11.3 | 0.00 | 0.00 | 0.00 | 57 | 1014.6 |
| 20260905205751 | 89 | 135 | 6.1 | 12.2 | 0.00 | 0.00 | 0.00 | 56 | 1014.7 |
| 20260905205246 | 89 | 166 | 13.0 | 15.6 | 0.00 | 0.00 | 0.00 | 53 | 1014.4 |
| 20260905204745 | 89 | 204 | 8.7 | 13.0 | 0.00 | 0.00 | 0.00 | 53 | 1014.6 |
| 20260905204241 | 88 | 177 | 8.7 | 13.0 | 0.00 | 0.00 | 0.00 | 53 | 1014.7 |
| 20260905203740 | 89 | 187 | 6.1 | 14.8 | 0.00 | 0.00 | 0.00 | 53 | 1014.6 |
| 20260905203236 | 89 | 149 | 7.8 | 11.3 | 0.00 | 0.00 | 0.00 | 52 | 1014.9 |
| 20260905202732 | 88 | 169 | 3.5 | 12.2 | 0.00 | 0.00 | 0.00 | 54 | 1014.8 |
| 20260905202227 | 87 | 194 | 5.2 | 11.3 | 0.00 | 0.00 | 0.00 | 54 | 1014.8 |
| 20260905201722 | 87 | 143 | 3.5 | 8.7 | 0.00 | 0.00 | 0.00 | 55 | 1015.1 |
| 20260905201217 | 87 | 165 | 6.1 | 11.3 | 0.00 | 0.00 | 0.00 | 54 | 1015.2 |
| 20260905200712 | 87 | 201 | 7.0 | 11.3 | 0.00 | 0.00 | 0.00 | 54 | 1015.3 |
| 20260905200208 | 86 | 148 | 5.2 | 8.7 | 0.00 | 0.00 | 0.00 | 57 | 1015.2 |
| 20260905195706 | 86 | 177 | 7.0 | 9.6 | 0.00 | 0.00 | 0.00 | 58 | 1015.3 |
| 20260905195200 | 85 | 182 | 4.3 | 13.0 | 0.00 | 0.00 | 0.00 | 58 | 1015.4 |
| 20260905194656 | 85 | 188 | 6.1 | 9.6 | 0.00 | 0.00 | 0.00 | 60 | 1015.1 |
| 20260905194155 | 84 | 158 | 5.2 | 11.3 | 0.00 | 0.00 | 0.00 | 61 | 1015.3 |